DW0417 Weather Reports


time (UTC)temp
C
wind
direction
speed
KPH
gust
KPH
rain 1hr
cm
rain 24hr
cm
rain mn
cm
humidity
%
barometer
mb
20260505064605 7 30 0.0 0.0 0.00 0.41 0.00 90 1010.4
20260505063605 7 30 0.0 0.0 0.00 0.41 0.00 89 1010.3
20260505062605 7 30 0.0 0.0 0.00 0.41 0.00 89 1010.3
20260505061605 7 30 0.0 0.0 0.00 0.41 0.00 89 1010.4
20260505060605 7 30 0.0 0.0 0.00 0.41 0.00 89 1010.4
20260505055558 7 30 0.0 1.6 0.00 0.41 0.41 89 1010.4
20260505054559 7 30 0.0 0.0 0.00 0.41 0.41 88 1010.6
20260505053558 8 30 1.6 1.6 0.00 0.41 0.41 87 1010.3
20260505052559 7 30 0.0 1.6 0.00 0.41 0.41 88 1010.2
20260505051557 8 30 0.0 1.6 0.00 0.41 0.41 86 1010.1
20260505051036 8 30 1.6 3.2 0.00 0.41 0.41 84 1010.1
20260505041600 8 77 12.9 17.7 0.00 0.41 0.41 81 1010.4
20260505041039 9 64 12.9 17.7 0.05 0.41 0.41 82 1010.4
20260505035557 9 77 12.9 17.7 0.13 0.41 0.41 82 1010.4
20260505034557 9 67 11.3 16.1 0.20 0.41 0.41 84 1010.3
20260505033557 9 72 11.3 19.3 0.33 0.41 0.41 85 1010.4
20260505032557 9 74 9.7 16.1 0.38 0.41 0.41 86 1010.7
20260505031558 9 76 11.3 17.7 0.41 0.41 0.41 86 1010.6
20260505030559 9 69 8.0 17.7 0.36 0.36 0.38 85 1010.4
20260505025558 9 92 6.4 12.9 0.28 0.28 0.28 85 1010.3
20260505024557 10 103 8.0 16.1 0.20 0.20 0.20 84 1010.2
20260505024044 10 74 6.4 14.5 0.08 0.08 0.08 80 1010.0
20260505022557 11 120 1.6 9.7 0.03 0.03 0.03 76 1009.9
20260505021558 11 179 0.0 3.2 0.00 0.00 0.00 74 1009.5
20260505020557 11 178 1.6 6.4 0.00 0.00 0.00 74 1009.4
20260505020031 11 186 3.2 12.9 0.00 0.00 0.00 74 1009.5
20260505014556 11 165 8.0 16.1 0.00 0.00 0.00 73 1009.4
20260505013557 11 194 9.7 17.7 0.00 0.00 0.00 70 1009.2
20260505013035 11 157 9.7 20.9 0.00 0.00 0.00 68 1009.2
20260505011555 12 167 11.3 22.5 0.00 0.00 0.00 66 1009.3
20260505010556 13 214 12.9 24.1 0.00 0.00 0.00 63 1009.0
20260505005551 14 175 6.4 25.7 0.00 0.00 0.00 58 1008.9
20260505004551 14 196 3.2 9.7 0.00 0.00 0.00 61 1008.8
20260505003549 14 186 1.6 6.4 0.00 0.00 0.00 60 1008.6
20260505002550 14 167 4.8 9.7 0.00 0.00 0.00 61 1008.6
20260505001549 14 127 3.2 9.7 0.00 0.00 0.00 63 1008.7
20260505001041 14 148 3.2 8.0 0.00 0.00 0.00 63 1008.6
20260504235549 13 141 4.8 8.0 0.00 0.00 0.00 64 1008.3
20260504234549 14 198 3.2 11.3 0.00 0.00 0.00 62 1008.6
20260504233549 14 213 1.6 8.0 0.00 0.00 0.00 61 1008.5
20260504232544 14 202 1.6 8.0 0.00 0.00 0.00 62 1008.3
20260504231543 13 186 3.2 4.8 0.00 0.00 0.00 65 1008.2
20260504230544 13 55 6.4 9.7 0.00 0.00 0.00 63 1008.3
20260504225541 14 113 12.9 24.1 0.00 0.00 0.00 57 1008.3
20260504224541 16 110 6.4 11.3 0.00 0.00 0.00 46 1008.3
20260504223541 16 94 8.0 16.1 0.00 0.00 0.00 48 1008.6
20260504222541 16 103 9.7 16.1 0.00 0.00 0.00 48 1008.6
20260504221542 16 111 4.8 11.3 0.00 0.00 0.00 45 1008.1
20260504221025 16 193 3.2 8.0 0.00 0.00 0.00 44 1007.4
20260504220026 16 157 4.8 14.5 0.00 0.00 0.00 45 1007.0
20260504214536 16 210 8.0 19.3 0.00 0.00 0.00 46 1006.9
20260504213537 16 217 9.7 30.6 0.00 0.00 0.00 47 1007.0
20260504212536 16 226 14.5 35.4 0.00 0.00 0.00 45 1007.3
20260504212018 17 199 17.7 33.8 0.00 0.00 0.00 43 1007.3
20260504210536 17 174 17.7 37.0 0.00 0.00 0.00 43 1007.2
20260504205536 16 167 8.0 30.6 0.00 0.00 0.00 46 1007.5
20260504204535 18 222 11.3 30.6 0.00 0.00 0.00 37 1007.9
20260504203535 20 231 9.7 20.9 0.00 0.00 0.00 32 1007.7
20260504202533 20 293 17.7 33.8 0.00 0.00 0.00 34 1006.7
20260504201533 19 359 24.1 41.8 0.00 0.00 0.00 33 1006.8
20260504201022 20 347 20.9 35.4 0.00 0.00 0.00 30 1006.9
20260504195533 21 81 24.1 38.6 0.00 0.00 0.00 28 1006.7
20260504194533 21 88 12.9 27.4 0.00 0.00 0.00 24 1006.5
20260504194015 22 91 6.4 14.5 0.00 0.00 0.00 24 1006.5
20260504192533 22 156 4.8 12.9 0.00 0.00 0.00 22 1006.3
20260504192017 21 195 6.4 16.1 0.00 0.00 0.00 21 1006.2
20260504190533 21 156 8.0 17.7 0.00 0.00 0.00 23 1006.2
20260504185533 21 96 8.0 16.1 0.00 0.00 0.00 24 1006.3
20260504184532 21 90 12.9 25.7 0.00 0.00 0.00 25 1006.5
20260504183534 22 176 11.3 22.5 0.00 0.00 0.00 26 1006.7
20260504182533 21 126 11.3 22.5 0.00 0.00 0.00 27 1006.9
20260504181532 21 103 16.1 29.0 0.00 0.00 0.00 27 1006.9
20260504180533 21 97 17.7 32.2 0.00 0.00 0.00 28 1007.2
20260504180011 20 103 19.3 32.2 0.00 0.00 0.00 30 1007.4
20260504174531 20 76 17.7 32.2 0.00 0.00 0.00 29 1007.6
20260504173532 20 86 17.7 33.8 0.00 0.00 0.00 31 1007.7
20260504172529 19 91 14.5 32.2 0.00 0.00 0.00 32 1008.0
20260504171529 18 98 14.5 29.0 0.00 0.00 0.00 32 1008.1
20260504171004 18 139 14.5 32.2 0.00 0.00 0.00 32 1008.2
20260504150528 17 107 4.8 11.3 0.00 0.00 0.00 33 1008.5
20260504110518 6 85 0.0 4.8 0.00 0.00 0.00 63 1008.3
20260504100519 7 309 1.6 4.8 0.00 0.00 0.00 53 1008.6
20260504081514 7 165 0.0 0.0 0.00 0.00 0.00 54 1009.4
20260504080514 7 165 0.0 0.0 0.00 0.00 0.00 55 1009.4